{"data":{"norad_id":67882,"epoch":"2026-09-19T06:30:03.351168Z","epoch_age_seconds":169404,"freshness":"FRESH","line1":"1 67882U 26035D   26262.27087212  .00019752  00000+0  61235-3 0  9997","line2":"2 67882  97.2845 194.1235 0000459  87.9712 272.1584 15.33456201 33651","mean_motion":15.33456201,"eccentricity":4.59e-5,"inclination_deg":97.2845,"raan_deg":194.1235,"arg_perigee_deg":87.9712,"mean_anomaly_deg":272.1584,"bstar":0.00061235,"rev_number":3365,"period_min":93.905518726974,"perigee_km":465.19572499522,"apogee_km":465.8239717759,"semimajor_km":6843.6468483856,"source":"CELESTRAK","updated_at":"2026-09-20T09:00:43.695541Z"}}